Clemson, SC

3:30 AM EDT on July 27, 2017 (GMT -0400)
Oconee County Regional

Weather History for KCEU - October, 2013

Change the Weather History Date:

Tuesday, October 1, 2013

  Actual Average Record
Temperature  
Mean Temperature 70 °F -  
Max Temperature 81 °F 77 °F 91 °F (1933)
Min Temperature 60 °F 54 °F 38 °F (1946)
Cooling Degree Days 5    
Growing Degree Days 20 (Base 50)    
Moisture  
Dew Point 58 °F    
Average Humidity 75    
Maximum Humidity 90    
Minimum Humidity 39    
Precipitation  
Precipitation 0.00 in - - ()
Sea Level Pressure  
Sea Level Pressure 30.11 in    
Wind  
Wind Speed 0 mph (West)    
Max Wind Speed 7 mph    
Max Gust Speed -    
Visibility 6 miles    
Events Fog    
Averages and records for this station are not official NWS values.
T = Trace of Precipitation, MM = Missing Value Source: NWS Daily Summary

Daily Weather History Graph

Daily Weather History Graph

Search for Another Location

Airport or City:

Trip Planner

Search our weather history database for the weather conditions in past years. The results will help you decide how hot, cold, wet, or windy it might be!

Date:

Astronomy

Oct. 01, 2013 Rise Set
Actual Time 7:26 AM EDT 7:15 PM EDT
Civil Twilight 7:01 AM EDT 7:40 PM EDT
Nautical Twilight 6:32 AM EDT 8:09 PM EDT
Astronomical Twilight 6:02 AM EDT 8:38 PM EDT
Moon 4:06 AM EDT (10/1) 5:12 PM EDT (10/1)
Length of Visible Light 12h 39m
Length of Day
11h 48m
Waning Crescent, 12% of the Moon is Illuminated
Oct 1
Waning Crescent
Oct 4
New
Oct 11
First Quarter
Oct 18
Full
Oct 26
Last Quarter

Hourly Weather History & Observations

Time (EDT) Temp. Heat Index Dew Point Humidity Pressure Visibility Wind Dir Wind Speed Gust Speed Precip Events Conditions
12:54 AM 64.0 °F - 59.0 °F 84% 30.09 in 8.0 mi Calm Calm - N/A   Clear
1:54 AM 64.0 °F - 59.0 °F 84% 30.08 in 7.0 mi Calm Calm - N/A   Clear
2:16 AM 62.6 °F - 59.0 °F 88% 30.11 in 2.0 mi Calm Calm - N/A   Clear
2:27 AM 62.6 °F - 57.2 °F 82% 30.11 in 8.0 mi Calm Calm - N/A   Clear
2:49 AM 62.6 °F - 57.2 °F 82% 30.11 in 1.8 mi Calm Calm - N/A   Partly Cloudy
2:52 AM 62.6 °F - 57.2 °F 82% 30.11 in 0.8 mi Calm Calm - N/A   Mist
2:54 AM 62.1 °F - 57.9 °F 86% 30.08 in 0.5 mi Calm Calm - N/A Fog Fog
3:04 AM 62.6 °F - 59.0 °F 88% 30.11 in 0.2 mi Calm Calm - N/A Fog Fog
3:18 AM 60.8 °F - 57.2 °F 88% 30.11 in 1.2 mi Calm Calm - N/A   Mostly Cloudy
3:21 AM 60.8 °F - 57.2 °F 88% 30.10 in 4.0 mi Calm Calm - N/A   Mostly Cloudy
3:29 AM 62.6 °F - 57.2 °F 82% 30.11 in 8.0 mi Calm Calm - N/A   Scattered Clouds
3:52 AM 60.8 °F - 57.2 °F 88% 30.11 in 1.8 mi Calm Calm - N/A   Scattered Clouds
3:54 AM 61.0 °F - 57.0 °F 87% 30.09 in 1.0 mi Calm Calm - N/A   Mist
4:00 AM 60.8 °F - 57.2 °F 88% 30.11 in 0.2 mi Calm Calm - N/A Fog Fog
4:04 AM 60.8 °F - 57.2 °F 88% 30.11 in 0.5 mi Calm Calm - N/A Fog Fog
4:16 AM 62.6 °F - 59.0 °F 88% 30.11 in 0.2 mi Calm Calm - N/A Fog Fog
4:54 AM 62.1 °F - 57.9 °F 86% 30.09 in 0.2 mi Calm Calm - N/A Fog Fog
5:54 AM 61.0 °F - 57.9 °F 90% 30.10 in 0.5 mi Calm Calm - N/A Fog Fog
6:05 AM 60.8 °F - 57.2 °F 88% 30.13 in 1.0 mi Calm Calm - N/A   Mostly Cloudy
6:10 AM 60.8 °F - 57.2 °F 88% 30.13 in 3.0 mi Calm Calm - N/A   Mostly Cloudy
6:54 AM 60.1 °F - 57.0 °F 90% 30.12 in 9.0 mi Calm Calm - N/A   Clear
7:54 AM 61.0 °F - 57.0 °F 87% 30.14 in 6.0 mi Calm Calm - N/A   Clear
8:54 AM 64.0 °F - 59.0 °F 84% 30.15 in 10.0 mi Calm Calm - N/A   Clear
9:54 AM 68.0 °F - 60.1 °F 76% 30.17 in 10.0 mi Calm Calm - N/A   Clear
10:54 AM 73.0 °F - 57.0 °F 57% 30.17 in 10.0 mi WSW 4.6 mph - N/A   Clear
11:54 AM 75.9 °F - 55.9 °F 50% 30.16 in 10.0 mi West 6.9 mph - N/A   Mostly Cloudy
12:54 PM 77.0 °F - 55.9 °F 48% 30.14 in 10.0 mi Variable 3.5 mph - N/A   Clear
1:54 PM 79.0 °F - 54.0 °F 42% 30.12 in 10.0 mi NW 4.6 mph - N/A   Clear
2:54 PM 79.0 °F - 55.0 °F 44% 30.09 in 10.0 mi Calm Calm - N/A   Clear
3:54 PM 80.1 °F 79.9 °F 53.1 °F 39% 30.07 in 10.0 mi Variable 3.5 mph - N/A   Clear
4:54 PM 80.1 °F 80.0 °F 54.0 °F 40% 30.06 in 10.0 mi Calm Calm - N/A   Clear
5:54 PM 79.0 °F - 55.0 °F 44% 30.07 in 10.0 mi SW 4.6 mph - N/A   Clear
6:54 PM 75.0 °F - 59.0 °F 57% 30.08 in 10.0 mi Calm Calm - N/A   Clear
7:54 PM 72.0 °F - 57.9 °F 61% 30.09 in 10.0 mi Calm Calm - N/A   Clear
8:54 PM 71.1 °F - 61.0 °F 70% 30.11 in 10.0 mi Calm Calm - N/A   Clear
9:54 PM 69.1 °F - 61.0 °F 75% 30.12 in 10.0 mi Calm Calm - N/A   Overcast
10:54 PM 70.0 °F - 60.1 °F 71% 30.12 in 10.0 mi Calm Calm - N/A   Partly Cloudy
11:54 PM 68.0 °F - 60.1 °F 76% 30.13 in 10.0 mi Calm Calm - N/A   Clear